Weather History for OTBD - July, 2013

Change the Weather History Date:

Tuesday, July 16, 2013

  Actual Average Record
Temperature  
Mean Temperature 96 °F -  
Max Temperature 104 °F 106 °F 117 °F (2012)
Min Temperature 88 °F 84 °F 86 °F (1999)
Cooling Degree Days 31    
Growing Degree Days 46 (Base 50)    
Moisture  
Dew Point 82 °F    
Average Humidity 66    
Maximum Humidity 89    
Minimum Humidity 40    
Precipitation  
Precipitation 0.00 in 0.00 in - ()
Sea Level Pressure  
Sea Level Pressure 29.45 in    
Wind  
Wind Speed 6 mph ()    
Max Wind Speed 20 mph    
Max Gust Speed -    
Visibility 4.5 miles    
Events      
Averages and records for this station are not official NWS values.
T = Trace of Precipitation, MM = Missing Value Source: Averaged Metar Reports

Daily Weather History Graph

Daily Weather History Graph

Search for Another Location

Airport or City:

Trip Planner

Search our weather history database for the weather conditions in past years. The results will help you decide how hot, cold, wet, or windy it might be!

Date:

Astronomy

Jul. 16, 2013 Rise Set
Actual Time 4:53 AM AST 6:26 PM AST
Civil Twilight 4:27 AM AST 6:51 PM AST
Nautical Twilight 3:57 AM AST 7:21 PM AST
Astronomical Twilight 3:25 AM AST 7:53 PM AST
Moon 11:57 AM AST (7/16) 11:31 PM AST (7/16)
Length of Visible Light 14h 23m
Length of Day
13h 32m
First Quarter, 53% of the Moon is Illuminated
Jul 16
First Quarter
Jul 22
Full
Jul 29
Last Quarter
Aug 7
New
Aug 14
First Quarter

Hourly Weather History & Observations

Time (AST) Temp. Heat Index Dew Point Humidity Pressure Visibility Wind Dir Wind Speed Gust Speed Precip Events Conditions
12:00 AM 90 °F - 85 °F 83% 29.47 in 4 mi NNE 6.9 mph - -   Haze
12:00 AM 91.4 °F 122.4 °F 86.0 °F 84% 29.44 in 4.3 mi NNE 6.9 mph - N/A   Unknown
12:30 AM 91.4 °F 122.4 °F 86.0 °F 84% 29.44 in 4.3 mi North 8.1 mph - N/A   Unknown
1:00 AM 89.6 °F 115.0 °F 84.2 °F 84% 29.44 in 5.0 mi North 5.8 mph - N/A   Unknown
1:30 AM 89.6 °F 115.0 °F 84.2 °F 84% 29.44 in 5.0 mi NNE 6.9 mph - N/A   Unknown
2:00 AM 89.6 °F 115.0 °F 84.2 °F 84% 29.44 in 5.0 mi NNE 5.8 mph - N/A   Unknown
2:30 AM 89.6 °F 115.0 °F 84.2 °F 84% 29.44 in 5.0 mi North 5.8 mph - N/A   Unknown
3:00 AM 90 °F - 85 °F 81% 29.46 in 5 mi NNE 11.2 mph - -   Haze
3:00 AM 89.6 °F 115.0 °F 84.2 °F 84% 29.44 in 5.0 mi NNE 5.8 mph - N/A   Unknown
3:30 AM 89.6 °F 115.0 °F 84.2 °F 84% 29.44 in 5.0 mi NNE 4.6 mph - N/A   Unknown
4:00 AM 89.6 °F 115.0 °F 84.2 °F 84% 29.44 in 5.0 mi NNE 3.5 mph - N/A   Unknown
4:30 AM 89.6 °F 115.0 °F 84.2 °F 84% 29.47 in 5.0 mi NE 3.5 mph - N/A   Unknown
5:00 AM 89.6 °F 115.0 °F 84.2 °F 84% 29.47 in 3.7 mi Variable 2.3 mph - N/A   Unknown
5:30 AM 89.6 °F 119.2 °F 86.0 °F 89% 29.47 in 3.7 mi Variable 2.3 mph - N/A   Unknown
6:00 AM 90 °F - 86 °F 85% 29.50 in 4 mi 2.2 mph - -   Haze
6:00 AM 89.6 °F 119.2 °F 86.0 °F 89% 29.44 in 3.7 mi Variable 1.2 mph - N/A   Unknown
6:30 AM 91.4 °F 122.4 °F 86.0 °F 84% 29.50 in 3.7 mi Calm Calm - N/A   Unknown
7:00 AM 91.4 °F 122.4 °F 86.0 °F 84% 29.50 in 3.7 mi ESE 3.5 mph - N/A   Partly Cloudy
7:30 AM 93.2 °F 120.9 °F 84.2 °F 75% 29.50 in 3.7 mi Variable 2.3 mph - N/A   Unknown
8:00 AM 95.0 °F 119.6 °F 82.4 °F 67% 29.50 in 4.3 mi North 3.5 mph - N/A   Unknown
8:30 AM 98.6 °F 124.6 °F 82.4 °F 60% 29.50 in 4.3 mi ENE 3.5 mph - N/A   Unknown
9:00 AM 98 °F - 82 °F 51% 29.52 in 4 mi NNE 6.7 mph - -   Haze
9:00 AM 98.6 °F 124.6 °F 82.4 °F 60% 29.50 in 4.3 mi NNE 3.5 mph - N/A   Unknown
9:30 AM 98.6 °F 128.0 °F 84.2 °F 63% 29.50 in 4.3 mi ENE 6.9 mph - N/A   Unknown
10:00 AM 98.6 °F 128.0 °F 84.2 °F 63% 29.50 in 4.3 mi NNE 4.6 mph - N/A   Unknown
11:00 AM 100.4 °F 126.1 °F 82.4 °F 56% 29.47 in 4.3 mi NNE 8.1 mph - N/A   Unknown
12:00 PM 100 °F - 81 °F 46% 29.48 in 5 mi ENE 20.1 mph - -   Haze
12:00 PM 100.4 °F 122.7 °F 80.6 °F 53% 29.47 in 5.0 mi ENE 10.4 mph - N/A   Unknown
12:30 PM 100.4 °F 116.5 °F 77.0 °F 47% 29.47 in - NE 9.2 mph - N/A   Clear
1:00 PM 102.2 °F 119.3 °F 77.0 °F 45% 29.44 in - NE 10.4 mph - N/A   Clear
2:00 PM 104.0 °F 118.9 °F 75.2 °F 40% 29.44 in - ENE 10.4 mph - N/A   Clear
2:30 PM 102.2 °F 114.4 °F 73.4 °F 40% 29.44 in - ENE 10.4 mph - N/A   Clear
3:00 PM 102.2 °F 116.3 °F 75.2 °F 42% 29.42 in - NE 10.4 mph - N/A   Clear
3:30 PM 100.4 °F 119.5 °F 78.8 °F 50% 29.42 in - NNE 10.4 mph - N/A   Clear
4:00 PM 98.6 °F 114.4 °F 77.0 °F 50% 29.42 in - NE 9.2 mph - N/A   Clear
5:00 PM 98.6 °F 114.4 °F 77.0 °F 50% 29.42 in - NE 8.1 mph - N/A   Clear
6:00 PM 96 °F - 78 °F 47% 29.42 in 6 mi NE 5.8 mph - -  
6:00 PM 96.8 °F 112.2 °F 77.0 °F 53% 29.42 in - NE 5.8 mph - N/A   Clear
6:30 PM 96.8 °F 112.2 °F 77.0 °F 53% 29.42 in - NE 4.6 mph - N/A   Clear
7:00 PM 95.0 °F 112.2 °F 78.8 °F 59% 29.42 in - Variable 2.3 mph - N/A   Clear
7:30 PM 95.0 °F 112.2 °F 78.8 °F 59% 29.42 in - Variable 2.3 mph - N/A   Clear
8:00 PM 95.0 °F 115.8 °F 80.6 °F 63% 29.42 in - SE 3.5 mph - N/A   Clear
8:30 PM 95.0 °F 112.2 °F 78.8 °F 59% 29.42 in - SE 3.5 mph - N/A   Clear
9:00 PM 95 °F - 80 °F 54% 29.44 in 6 mi South 8.9 mph - -  
9:00 PM 95.0 °F 115.8 °F 80.6 °F 63% 29.44 in - South 4.6 mph - N/A   Clear
9:30 PM 95.0 °F 112.2 °F 78.8 °F 59% 29.42 in - SSW 4.6 mph - N/A   Clear
10:00 PM 95.0 °F 115.8 °F 80.6 °F 63% 29.42 in - SSW 5.8 mph - N/A   Clear
10:30 PM 93.2 °F 113.6 °F 80.6 °F 67% 29.42 in - SW 6.9 mph - N/A   Clear
11:00 PM 93.2 °F 113.6 °F 80.6 °F 67% 29.42 in - SW 5.8 mph - N/A   Clear